This is the latest recevied weather packets stored in our database for station/object KI5MKI. If no packets are shown the sender has not sent any weather packets the latest 10 day(s).
| Time | Temp. | Humidity | Pressure | Rain* | Wind** | Luminosity | Snow |
|---|---|---|---|---|---|---|---|
| 1777914719 | 23.33° C | 49% | 1013.6 hPa | 0 mm | - | 836 W/m² | - |
| 1777914416 | 23.89° C | 48% | 1013.7 hPa | 0 mm | - | 901 W/m² | - |
| 1777914114 | 23.33° C | 48% | 1014 hPa | 0 mm | - | 922 W/m² | - |
| 1777913810 | 22.78° C | 50% | 1014 hPa | 0 mm | - | 832 W/m² | - |
| 1777913507 | 22.78° C | 51% | 1014 hPa | 0 mm | - | 819 W/m² | - |
| 1777913203 | 22.78° C | 52% | 1014 hPa | 0 mm | - | 602 W/m² | - |
| 1777912898 | 22.78° C | 55% | 1014 hPa | 0 mm | - | 710 W/m² | - |
| 1777912596 | 22.78° C | 54% | 1013.9 hPa | 0 mm | - | 681 W/m² | - |
| 1777912292 | 22.22° C | 55% | 1013.6 hPa | 0 mm | - | 705 W/m² | - |
| 1777911988 | 22.78° C | 50% | 1014 hPa | 0 mm | - | 765 W/m² | - |
| 1777911684 | 22.22° C | 55% | 1014 hPa | 0 mm | - | 783 W/m² | - |
| 1777911380 | 22.22° C | 53% | 1014.1 hPa | 0 mm | - | 754 W/m² | - |
| 1777911078 | 22.22° C | 54% | 1014 hPa | 0 mm | - | 711 W/m² | - |
| 1777910775 | 22.22° C | 55% | 1014 hPa | 0 mm | - | 750 W/m² | - |
| 1777910472 | 21.67° C | 56% | 1014.1 hPa | 0 mm | - | 717 W/m² | - |
| 1777910168 | 22.22° C | 55% | 1014.3 hPa | 0 mm | - | 743 W/m² | - |
| 1777909866 | 22.22° C | 54% | 1014 hPa | 0 mm | - | 709 W/m² | - |
| 1777909563 | 21.67° C | 55% | 1014.3 hPa | 0 mm | - | 696 W/m² | - |
| 1777909260 | 21.67° C | 55% | 1014.4 hPa | 0 mm | - | 627 W/m² | - |
| 1777908958 | 21.11° C | 58% | 1014.3 hPa | 0 mm | - | 703 W/m² | - |
| 1777908656 | 21.11° C | 57% | 1014.4 hPa | 0 mm | - | 694 W/m² | - |
| 1777908352 | 21.11° C | 56% | 1014.3 hPa | 0 mm | - | 599 W/m² | - |
| 1777908049 | 21.11° C | 57% | 1014.4 hPa | 0 mm | - | 666 W/m² | - |
| 1777907745 | 20.56° C | 58% | 1014.5 hPa | 0 mm | - | 574 W/m² | - |
| 1777907445 | 20.56° C | 58% | 1014.2 hPa | 0 mm | - | 472 W/m² | - |
* Rain latest hour (hover to see other rain measurements)
** Current wind speed in m/s (hover to see current wind gust speed)